This demonstration page uses our WeatherBlox Daily Observations layout. Learn more.

Left ArrowRight Arrow

39.08367, -84.50855

Hourly Observations for February 18, 2016

Temp ( °F °C ) Dew Point ( °F °C ) Humidity (%) Winds ( mph kmh ) Pressure ( in mb ) Visibility ( mi km ) Precip ( " mm )
12:53 am 00:53 Cloudy 31 -0.6 27 -2.8 85 85 SW 6 9 30.42 1030 9 14 N/A
1:53 am 01:53 Cloudy 30 -1.1 27 -2.8 88 88 SSW 5 7 30.42 1030 10 16 N/A
2:53 am 02:53 Mostly Cloudy 28 -2.2 25 -3.9 88 88 N N/A 30.41 1030 9 14 N/A
3:53 am 03:53 Cloudy 28 -2.2 26 -3.3 92 92 N N/A 30.44 1031 8 13 N/A
4:53 am 04:53 Cloudy 28 -2.2 26 -3.3 92 92 N N/A 30.45 1031 8 13 N/A
5:53 am 05:53 Cloudy 28 -2.2 26 -3.3 92 92 N N/A 30.46 1032 8 13 N/A
6:53 am 06:53 Cloudy 28 -2.2 26 -3.3 92 92 N N/A 30.49 1033 10 16 N/A
7:53 am 07:53 Cloudy with Mist and Fog 28 -2.2 26 -3.3 92 92 N N/A 30.51 1033 5 8 N/A
8:53 am 08:53 Partly Cloudy with Mist and Fog 29 -1.7 28 -2.2 96 96 SSW 3 6 30.53 1034 6 10 N/A
9:53 am 09:53 Sunny 34 1.1 29 -1.7 82 82 N N/A 30.53 1034 7 11 N/A
10:53 am 10:53 Sunny 37 2.8 26 -3.3 65 65 SSW 9 15 30.55 1035 10 16 N/A
11:53 am 11:53 Sunny 39 3.9 25 -3.9 57 57 SE 7 11 30.54 1034 10 16 N/A
12:53 pm 12:53 Sunny 40 4.4 25 -3.9 55 55 SSE 8 13 30.52 1034 10 16 N/A
1:53 pm 13:53 Sunny 42 5.6 24 -4.4 49 49 ESE 9 15 30.49 1032 10 16 N/A
2:53 pm 14:53 Sunny 43 6.1 26 -3.3 51 51 SE 9 15 30.47 1032 10 16 N/A
3:53 pm 15:53 Sunny 44 6.7 25 -3.9 47 47 SSE 10 17 30.44 1031 10 16 N/A
4:53 pm 16:53 Sunny 43 6.1 25 -3.9 49 49 SE 8 13 30.42 1030 10 16 N/A
5:53 pm 17:53 Sunny 41 5 26 -3.3 55 55 SSE 10 17 30.40 1030 10 16 N/A
6:53 pm 18:53 Clear 40 4.4 27 -2.8 60 60 SE 6 9 30.38 1029 10 16 N/A
7:53 pm 19:53 Mostly Cloudy 39 3.9 28 -2.2 65 65 SSE 3 6 30.37 1029 10 16 N/A
8:53 pm 20:53 Cloudy 40 4.4 27 -2.8 60 60 VRB 3 6 30.36 1028 10 16 N/A
9:53 pm 21:53 Mostly Cloudy 40 4.4 27 -2.8 60 60 SSE 6 9 30.33 1027 10 16 N/A
10:53 pm 22:53 Clear 40 4.4 27 -2.8 60 60 SSE 6 9 30.29 1026 10 16 N/A
11:53 pm 23:53 Clear 39 3.9 28 -2.2 65 65 S 6 9 30.27 1025 10 16 N/A

Powered by AerisWeather